Terminal Aerodrome Forecast
Issued by NWS Melbourne, FL

Home | Current Version | Previous Version | Text Only | Print | Product List | Glossary On
Versions: 1 2 3 4 5 6 7 8 9 10 11 12 13
000
FTUS42 KMLB 270521
TAFMLB
TAF
KMLB 270521Z 2706/2806 19003KT P6SM SKC
     FM271400 18009KT P6SM FEW040
     FM271700 14014G22KT P6SM FEW050=

USA.gov is the U.S. government's official web portal to all federal, state and local government web resources and services.